Hourly Data Report for November 24, 2017

All times are specified in Local Standard Time (LST). Add 1 hour to adjust for Daylight Saving Time where and when it is observed.

BATHURST A
NEW BRUNSWICK

47°37'47.000" N
65°44'20.000" W
58.80 m
8100505
71574
ZBF

Download Data

Hourly Data (November 2017)
Hourly Data Report for November 24, 2017
Temp Definition
°C
Dew Point Temp Definition
°C
Rel Hum Definition
%
Wind Dir Definition
10's deg

Wind Spd Definition
km/h
Visibility Definition
km
Stn Press Definition
kPa
Hmdx Definition


Wind Chill Definition


Weather Definition


TIME
00:00 Legend Double Dagger -4.6 -7.4 81 17 6 24.1 100.04   -7 LegendNANA
01:00 Legend Double Dagger -4.8 -6.8 86 19 4 24.1 99.99   -7 LegendNANA
02:00 Legend Double Dagger -4.6 -7.0 83 19 7 24.1 99.97   -8 Cloudy
03:00 Legend Double Dagger -4.8 -6.5 88 14 4 24.1 99.99   -7 LegendNANA
04:00 Legend Double Dagger -4.7 -6.3 88 15 5 24.1 99.95   -7 LegendNANA
05:00 Legend Double Dagger -4.5 -6.1 89 13 8 24.1 99.93   -8 Cloudy
06:00 Legend Double Dagger -4.3 -5.8 89 36 2 24.1 99.98   -5 LegendNANA
07:00 Legend Double Dagger -2.2 -5.4 79 25 20 24.1 100.02   -8 LegendNANA
08:00 Legend Double Dagger -2.1 -5.0 80 24 15 24.1 100.07   -7 Mostly Cloudy
09:00 Legend Double Dagger -2.3 -5.0 81 21 12 24.1 100.08   -7 LegendNANA
10:00 Legend Double Dagger -0.5 -4.4 75 25 23 24.1 100.17   -6 LegendNANA
11:00 Legend Double Dagger 0.0 -4.4 72 27 22 24.1 100.22   -6 Mostly Cloudy
12:00 Legend Double Dagger -0.4 -5.5 68 28 18 16.1 100.25   -5 Snow Showers
13:00 Legend Double Dagger -0.2 -5.4 68 26 12 24.1 100.30   -4 LegendNANA
14:00 Legend Double Dagger -0.1 -6.2 64 25 19 24.1 100.34   -5 Mostly Cloudy
15:00 Legend Double Dagger -0.8 -6.4 66 26 11 24.1 100.40   -5 LegendNANA
16:00 Legend Double Dagger -0.9 -6.7 65 28 13 24.1 100.44   -5 LegendNANA
17:00 Legend Double Dagger -1.6 -6.2 71 26 7 24.1 100.50   -4 Cloudy
18:00 Legend Double Dagger -2.3 -7.6 67 4 4 24.1 100.57   -4 LegendNANA
19:00 Legend Double Dagger -2.4 -7.0 71 0 1 24.1 100.63   -3 LegendNANA
20:00 Legend Double Dagger -3.0 -6.0 80 9 9 24.1 100.58   -7 Cloudy
21:00 Legend Double Dagger -2.5 -6.1 76 36 3 24.1 100.59   -4 LegendNANA
22:00 Legend Double Dagger -2.4 -4.5 86 16 5 24.1 100.49   -4 LegendNANA
23:00 Legend Double Dagger -2.4 -4.2 88 18 8 16.1 100.46   -6 Cloudy

Notes on Data Quality.

Legend

  • E = Estimated
  • M = Missing
  • NA = Not Available
  • ‡ = Partner data that is not subject to review by the National Climate Archives
Date modified: